Regional Weather Roundup
Issued by NWS

Home | Current Version | Previous Version | Graphics & Text | Print | Product List | Glossary On
Versions: 1 2 3 4 5 6 7 8 9 10 11 12 13 14 15 16 17 18 19 20 21 22 23 24 25 26 27 28 29 30 31 32 33 34 35 36 37 38 39 40 41 42 43 44 45 46 47 48 49 50
000
ASUS43 KDMX 290907
RWRIA

WEATHER ROUNDUP FOR IOWA
NATIONAL WEATHER SERVICE DES MOINES IA
400 AM CDT FRI MAY 29 2015

NOTE: "FAIR" INDICATES FEW OR NO CLOUDS BELOW 12,000 FEET WITH NO
SIGNIFICANT WEATHER AND/OR OBSTRUCTIONS TO VISIBILITY.

* - THESE STATIONS ARE NOT NWS STATIONS...THUS NOT UNDER NWS
QUALITY CONTROL.  THEY ALSO DO NOT REPORT WEATHER SUCH
AS PRECIPITATION OR FOG.

IAZ001>003-012>014-020>022-031>034-043>046-291000-
   NORTHWEST IOWA

CITY           SKY/WX    TMP DP  RH WIND       PRES   REMARKS
CARROLL *      CLOUDY    64  63  94 S10       29.91F
CHEROKEE *     CLOUDY    66  64  94 S8        29.88S
DENISON *      CLOUDY    64  64 100 S12       29.88F
LE MARS *      MOCLDY    66  64  94 S16G24    29.86F
ORANGE CITY *  MOCLDY    64  63  94 S17       29.86S
SHELDON *      CLOUDY    64  64 100 S14G22    29.85F
SIOUX CITY     LGT RAIN  67  63  87 SE7       29.85F
SPENCER        LGT RAIN  65  64  97 S12       29.87F
STORM LAKE *   MOCLDY    64  63  94 S18       29.89F
$$

IAZ055>058-069>071-079>083-090>094-291000-
   SOUTHWEST IOWA

CITY           SKY/WX    TMP DP  RH WIND       PRES   REMARKS
ATLANTIC *     CLOUDY    64  64 100 S8        29.92F
AUDUBON *      MOCLDY    64  61  88 S7        29.93F
CLARINDA *     MOCLDY    64  64 100 S3        29.93F
COUNCIL BLFS * MOCLDY    66  66 100 S10G17    29.90F
CRESTON *      CLOUDY    61  61 100 S6        29.95S
HARLAN  *      CLOUDY    64  64 100 S7        29.95F
LAMONI         FOG       66  63  90 S3        29.95S VSB 1/4
RED OAK *      CLOUDY    66  64  94 S9        29.92F
SHENANDOAH *   MOCLDY    66  64  94 S7        29.92S
$$

IAZ047>049-059>061-072>074-084-291000-
   CENTRAL IOWA

CITY           SKY/WX    TMP DP  RH WIND       PRES   REMARKS
AMES           MOCLDY    61  60  97 SE6       29.93F
ANKENY *       CLEAR     61  61 100 CALM      29.93F
CHARITON *       N/A     63  63 100 SE5       29.94F
DES MOINES     PTCLDY    63  60  90 S5        29.93F
GRINNELL*      CLOUDY    64  63  94 S7        29.95F
KNOXVILLE *    CLOUDY    64  63  94 S5        29.93F
MARSHALLTOWN   CLOUDY    64  62  93 S6        29.94F
PELLA *        CLOUDY    64  64 100 S5        29.95F
PERRY *        MOCLDY    63  61  94 S7        29.93S
$$

IAZ004>006-015-016-023>025-035-036-291000-
   NORTH CENTRAL IOWA

CITY           SKY/WX    TMP DP  RH WIND       PRES   REMARKS
ALGONA *       PTCLDY    66  64  94 S14       29.90F
CLARION *      MOCLDY    64  63  94 S9        29.92F
ESTHERVILLE    LGT RAIN  64  63  96 S10       29.88F
FORT DODGE *   PTCLDY    64  61  88 S9        29.91F
MASON CITY     CLOUDY    66  63  90 S10       29.93F
FOREST CITY *  CLOUDY    63  63 100 S9        29.91F
IOWA FALLS *   CLOUDY    63  61  94 S7        29.94F
$$

IAZ007>011-017>019-026>030-037>042-050>054-066-291000-
   NORTHEAST IOWA

CITY           SKY/WX    TMP DP  RH WIND       PRES   REMARKS
CEDAR RAPIDS   CLOUDY    64  63  96 S8        29.95F
CHARLES CITY * CLOUDY    64  64 100 S8        29.94F
CLINTON *      CLOUDY    64  59  82 SE6       30.00F
DECORAH *      CLOUDY    64  61  88 VRB7      29.95F
DUBUQUE        LGT RAIN  64  61  90 S8        29.99F
MONTICELLO *   PTCLDY    66  64  94 SE3G13    29.97F
OELWEIN *      CLOUDY    64  63  94 SE8       29.96F
WATERLOO       CLOUDY    65  62  90 S7        29.94F
$$

IAZ064-065-067-068-078-291000-
   EAST CENTRAL IOWA

CITY           SKY/WX    TMP DP  RH WIND       PRES   REMARKS
DAVENPORT      CLOUDY    66  61  84 SE6       29.98F
IOWA CITY      CLOUDY    65  63  93 SE5       29.98F
MT. PLEASANT * CLOUDY    64  64 100 CALM      29.96F
MUSCATINE *    PTCLDY    66  63  88 CALM      29.97F
QUAD CITIES    CLOUDY    67  61  81 E3        29.97F
$$

IAZ062-063-075>077-085>089-095>099-291000-
   SOUTHEAST IOWA

CITY           SKY/WX    TMP DP  RH WIND       PRES   REMARKS
BURLINGTON     CLOUDY    68  65  90 SE5       29.96F
FAIRFIELD *    CLOUDY    64  63  94 CALM      29.96F
FORT MADISON * CLEAR     66  64  94 SE7       29.97F
KEOKUK *       CLEAR     66  64  94 CALM      29.95F
OSKALOOSA *    MOCLDY    64  63  94 SE9       29.95F
CENTERVILLE *  CLEAR     63  63 100 E6        29.95F
OTTUMWA        CLOUDY    64  63  96 E7        29.94F
WASHINGTON *   PTCLDY    64  64 100 CALM      29.97F
$$

ABBREVIATIONS USED IN REMARKS
   TC - TEMPERATURES IN CELSIUS
  WCI - WIND CHILL INDEX
   HX - HEAT INDEX
  VSB - VISIBILITY
$$




USA.gov is the U.S. government's official web portal to all federal, state and local government web resources and services.